Location: Key Biscayne
(25.6930°N, 80.1630°W)
Time: 23:23:21
(UTC-05:00)

Vanguard 1 - Pass Details

Date: 17 November 2017
Orbit: 650 x 3833 km, 34.2° (Epoch: 10 December)

Event Time Altitude Azimuth Distance (km) Brightness Sun altitude
Exits shadow 03:12:07 11° 202° (SSW) 5,685 13.7 -46.6°
Drops below altitude 10° 03:15:11 10° 193° (SSW) 6,056 13.9 -45.9°
Sets 03:26:39 0° 167° (SSE) 7,734 14.8 -43.3°
